SCP
0 0 0 0 0 0 0 0 0 0 0 0 0 0 0 0 0 0 0 0 0 0 0 0 0 0 0 0 0 0 0 0 0 0 1 1 1 1 1 1 1 1 1
0 0 0 0 0 0 0 0 0 0 0 0 0 0 0 0 0 0 0 0 0 0 0 0 0 0 0 0 0 0 0 0 0 0 0 1 1 1 1 1 1 1 1
0 0 0 0 0 0 0 0 0 0 0 0 0 0 0 0 0 0 0 0 0 0 0 0 0 0 0 0 0 0 0 0 0 0 0 0 0 1 1 1 1 1 1
0 0 0 0 0 0 0 0 0 0 0 0 0 0 0 0 0 0 0 0 0 0 0 0 0 0 0 0 0 0 0 0 0 0 0 0 0 1 1 1 1 1 1
0 0 0 0 0 0 0 0 0 0 0 0 0 0 0 0 0 0 0 0 0 0 0 0 0 0 0 0 0 0 0 0 0 0 0 0 0 0 0 0 1 1 1
0 0 0 0 0 0 0 0 0 0 0 0 0 0 0 0 0 0 0 0 0 0 0 0 0 0 0 0 0 0 0 0 0 0 0 0 0 0 0 0 0 1 1
0 0 0 0 0 0 0 0 0 0 0 0 0 0 0 0 0 0 0 0 0 0 0 0 0 0 0 0 0 0 0 0 0 0 0 0 0 0 0 0 0 0 0
0 0 0 0 0 0 0 0 0 0 0 0 0 0 0 0 0 0 0 0 0 0 0 0 0 0 0 0 0 0 0 0 0 0 0 0 0 0 0 0 0 0 0
0 0 0 0 0 0 0 0 0 0 0 0 0 0 0 0 0 0 0 0 0 0 0 0 0 0 0 0 0 0 0 0 0 0 0 0 0 0 0 0 0 0 0
0 0 0 0 0 0 0 0 0 0 0 0 0 0 0 0 0 0 0 0 0 0 0 0 0 0 0 0 0 0 0 0 0 0 0 0 0 0 0 0 0 0 0
0 0 0 0 0 0 0 0 0 0 0 0 0 0 0 0 0 0 0 0 0 0 0 0 0 0 0 0 0 0 0 0 0 0 0 0 0 0 0 0 0 0 0
0 0 0 0 0 0 0 0 0 0 0 0 0 0 0 0 0 0 0 0 0 0 0 0 0 0 0 0 0 0 0 0 0 0 0 0 0 0 0 0 0 0 0
0 0 0 0 0 0 0 0 0 0 0 0 0 0 0 0 0 0 0 0 0 0 0 0 0 0 0 0 0 0 0 0 0 0 0 0 0 0 0 0 0 0 0
0 0 0 0 0 0 0 0 0 0 0 0 0 0 0 0 0 0 0 0 0 0 0 0 0 0 0 0 0 0 0 0 0 0 0 0 0 0 0 0 0 0 0
0 0 0 0 0 0 0 0 0 0 0 0 0 0 0 0 0 0 0 0 0 0 0 0 0 0 0 0 0 0 0 0 0 0 0 0 0 0 0 0 0 0 0
0 0 0 0 0 0 0 0 0 0 0 0 0 0 0 0 0 0 0 0 0 0 0 0 0 0 0 0 0 0 0 0 0 0 0 0 0 0 0 0 0 0 0
0 0 0 0 0 0 0 0 0 0 0 0 0 0 0 0 0 0 0 0 0 0 0 0 0 0 0 0 0 0 0 0 0 0 0 0 0 0 0 0 0 0 0
0 0 0 0 0 0 0 0 0 0 0 0 0 0 0 0 0 0 0 0 0 0 0 0 0 0 0 0 0 0 0 0 0 0 0 0 0 0 0 0 0 0 0
0 0 0 0 0 0 0 0 0 0 0 0 0 0 0 0 0 0 0 0 0 0 0 0 0 0 0 0 0 0 0 0 0 0 0 0 0 0 0 0 0 0 0
0 0 0 0 0 0 0 0 0 0 0 0 0 0 0 0 0 0 0 0 0 0 0 0 0 0 0 0 0 0 0 0 0 0 0 0 0 0 0 0 0 0 0
0 0 0 0 0 0 0 0 0 0 0 0 0 0 0 0 0 0 0 0 0 0 0 0 0 0 0 0 0 0 0 0 0 0 0 0 0 0 0 0 0 0 0
0 0 0 0 0 0 0 0 0 0 0 0 0 0 0 0 0 0 0 0 0 0 0 0 0 0 0 0 0 0 0 0 0 0 0 0 0 0 0 0 0 0 0
0 0 0 0 0 0 0 0 0 0 0 0 0 0 0 0 0 0 0 0 0 0 0 0 0 0 0 0 0 0 0 0 0 0 0 0 0 0 0 0 0 0 0
0 0 0 0 0 0 0 0 0 0 0 0 0 0 0 0 0 0 0 0 0 0 0 0 0 0 0 0 0 0 0 0 0 0 0 0 0 0 0 0 0 0 0
0 0 0 0 0 0 0 0 0 0 0 0 0 0 0 0 0 0 0 0 0 0 0 0 0 0 0 0 0 0 0 0 0 0 0 0 0 0 0 0 0 0 0
0 0 0 0 0 0 0 0 0 0 0 0 0 0 0 0 0 0 0 0 0 0 0 0 0 0 0 0 0 0 0 0 0 0 0 0 0 0 0 0 0 0 0
Wind_Speed
3 2 2 2 2 2 2 2 2 3 3 3 3 3 3 3 3 3 3 7 8 8 8 8 8 8 8 8 7 7 7 7 7 7 7 7 7 7 7 6 6 5 5
3 2 2 2 2 2 2 2 2 2 2 2 3 3 3 3 3 3 3 5 9 9 9 9 9 9 9 9 9 9 9 9 8 8 8 8 8 8 8 7 7 7 6
3 3 2 2 2 2 2 2 3 3 3 3 3 3 2 3 3 3 3 3 3 7 9 9 9 9 10 9 9 10 10 10 9 9 9 9 8 8 8 8 7 7 7
4 3 2 2 2 2 2 2 3 3 2 2 2 2 2 2 3 3 3 3 3 3 6 9 9 10 10 10 10 10 10 10 10 10 10 9 9 9 9 9 8 7 7
4 3 2 2 2 3 3 3 3 2 2 2 1 2 2 2 2 3 3 3 3 3 3 6 8 9 9 10 10 10 9 9 10 10 10 10 10 10 9 9 8 8 8
3 3 3 3 3 3 3 3 3 3 2 1 1 2 2 2 2 2 3 3 2 3 3 3 3 5 8 9 9 10 10 10 9 10 10 10 10 10 10 9 9 9 9
3 3 3 3 3 3 2 2 2 3 2 2 2 2 2 2 2 2 2 2 2 2 3 3 2 2 3 7 9 10 10 10 10 9 10 10 10 9 9 9 9 9 9
3 3 3 2 3 2 3 3 3 2 2 3 1 1 1 2 2 1 1 1 1 1 2 2 2 2 2 2 5 8 9 10 10 10 9 10 10 10 10 9 9 9 9
2 3 3 3 2 2 2 2 2 2 1 2 2 1 2 2 1 2 1 1 1 0 0 0 1 1 1 1 2 6 9 10 10 10 10 10 10 10 9 9 9 9 10
2 2 2 3 2 2 2 2 2 1 1 1 1 1 0 2 1 1 2 1 1 1 1 1 0 0 1 1 2 5 8 9 10 11 11 10 10 10 10 10 10 10 10
1 2 2 2 2 1 1 2 1 1 1 1 0 0 1 1 1 1 2 2 2 2 2 1 1 1 0 0 1 4 7 9 10 10 10 11 11 11 11 11 10 11 11
0 0 1 1 1 1 1 1 1 1 1 1 1 1 1 0 0 1 1 2 2 3 2 1 1 1 1 1 2 4 6 8 9 10 10 10 11 11 11 11 11 11 11
1 1 1 1 1 1 1 1 1 1 1 1 1 1 1 1 1 1 1 1 2 2 2 1 1 1 1 1 2 4 5 8 9 10 10 10 10 10 11 11 11 11 11
2 2 2 2 2 2 1 1 1 1 1 1 1 2 1 1 1 1 2 1 1 2 2 3 1 1 1 1 3 4 3 8 8 9 10 10 9 10 10 10 10 10 11
2 2 2 2 2 2 2 2 1 1 1 2 2 2 2 2 1 1 1 2 2 2 3 3 2 2 2 2 4 2 3 7 8 9 9 9 9 9 10 10 10 10 10
2 3 2 2 2 2 2 2 1 2 2 2 2 2 2 2 2 2 2 2 2 3 3 3 3 2 2 3 5 3 4 7 8 9 9 9 8 9 9 9 9 10 10
3 3 3 3 3 3 3 2 2 2 2 2 2 2 3 3 2 2 2 2 3 3 4 4 2 2 2 3 4 3 3 3 4 8 9 9 8 9 9 9 9 10 10
3 3 3 3 3 3 3 3 3 3 3 3 3 3 4 3 3 3 3 3 3 4 4 5 3 2 3 3 3 3 3 3 3 8 9 8 8 9 9 9 9 9 10
3 3 3 3 4 3 3 4 4 4 4 4 4 4 4 3 4 3 3 3 3 3 3 4 4 2 3 2 3 3 3 3 4 5 7 7 8 9 9 9 9 9 10
3 3 3 4 4 4 4 4 4 4 4 4 4 4 4 4 4 4 4 4 3 3 3 3 4 3 3 3 2 3 3 3 3 3 4 6 7 9 9 8 8 9 9
4 4 3 3 3 3 4 4 4 4 4 4 4 4 4 5 7 5 4 4 4 3 3 3 4 3 3 2 3 2 3 4 3 2 3 3 3 3 4 6 8 9 9
3 3 4 4 4 4 6 7 5 4 4 4 4 4 4 5 6 8 9 7 6 5 4 4 4 4 5 4 3 3 2 2 3 2 2 4 2 3 3 3 7 9 8
3 4 4 4 5 6 8 8 7 4 4 4 4 4 3 4 5 3 6 7 7 10 9 5 6 6 5 4 3 3 3 3 4 3 1 4 2 3 3 4 8 8 8
4 4 4 4 4 6 8 7 7 4 3 4 4 5 4 4 4 4 3 4 4 5 6 5 6 6 6 5 5 4 4 4 3 2 2 3 2 3 3 3 6 6 7
4 4 4 4 5 6 7 8 6 3 3 4 4 5 5 5 8 8 4 4 5 5 7 9 9 8 9 9 5 2 2 2 4 2 2 2 2 3 3 2 3 6 7
4 4 4 4 5 5 7 8 7 3 3 4 3 4 7 7 9 9 5 4 6 6 4 4 5 6 5 6 7 4 4 3 3 3 2 2 1 1 4 2 2 2 4
Wind_Direction
85 74 72 67 51 45 56 53 41 42 49 46 51 65 59 59 66 61 50 64 65 62 58 50 44 37 32 33 33 30 28 24 19 15 14 12 7 360 353 346 338 334 327
88 81 72 65 49 42 49 60 54 60 55 55 51 54 62 66 77 77 71 60 63 63 58 53 47 42 36 36 38 37 33 28 21 18 15 11 8 2 358 354 350 346 340
84 81 72 65 51 48 55 54 45 55 59 54 47 44 59 64 82 89 84 75 59 56 57 53 47 41 35 32 33 33 32 30 24 21 17 12 9 4 0 357 352 348 346
81 80 72 60 56 60 59 67 54 47 40 43 37 32 45 61 81 92 87 81 68 56 50 54 52 46 38 33 30 30 30 29 24 19 15 10 8 5 1 1 0 356 352
75 81 71 52 60 63 52 55 53 54 36 29 33 48 47 66 88 94 90 84 77 71 57 53 52 46 38 31 26 22 21 21 18 14 9 4 2 360 360 1 359 358 357
73 76 71 53 60 68 55 55 61 48 37 24 42 46 39 57 77 85 92 84 73 70 65 61 47 38 37 30 23 16 13 13 11 10 5 1 359 357 357 357 357 357 354
80 76 68 57 54 66 65 62 71 56 31 18 57 30 14 38 68 70 78 83 69 66 70 70 63 50 28 29 21 14 7 3 0 360 357 354 354 354 351 350 351 352 350
74 84 81 72 64 67 59 52 56 60 28 22 70 88 17 351 8 41 56 92 78 64 65 66 71 63 45 23 12 13 5 357 354 353 351 347 346 346 345 346 350 350 349
79 85 86 81 73 74 70 56 62 78 64 13 32 124 145 218 306 329 0 42 38 46 15 41 68 53 51 30 359 359 3 356 350 347 345 347 344 339 340 342 344 345 345
91 92 95 89 82 85 84 60 62 76 106 50 6 18 139 166 168 301 320 333 322 275 269 288 317 81 59 29 2 0 358 350 345 341 339 340 340 338 337 338 339 337 337
100 108 109 106 107 104 109 97 80 70 97 134 114 1 28 37 94 166 278 311 316 282 257 246 229 236 263 352 313 342 350 345 339 336 334 336 337 337 336 336 335 333 332
359 111 128 130 132 133 134 130 119 101 108 127 128 155 163 162 149 151 238 278 287 284 278 242 217 226 238 278 310 338 339 338 336 333 330 332 335 335 335 334 332 332 331
217 225 180 168 173 179 169 142 123 124 148 150 171 183 179 200 186 176 196 259 280 289 295 279 234 220 253 275 296 321 325 330 332 331 327 330 334 333 331 329 329 330 331
212 207 196 201 207 194 176 161 154 188 172 187 201 191 189 215 199 190 187 188 282 293 283 273 274 238 265 276 290 307 308 319 322 324 324 327 329 328 327 326 326 327 327
209 199 199 203 209 205 197 180 196 212 203 214 216 212 210 215 206 203 190 180 192 252 271 268 274 277 285 278 292 280 282 302 314 317 317 320 322 321 322 323 321 324 324
204 196 205 207 210 212 206 191 210 220 216 231 221 220 228 220 212 203 200 206 201 208 251 262 257 275 285 291 294 279 274 299 308 312 312 311 313 319 320 321 320 320 318
207 206 208 210 214 216 211 202 218 223 228 242 241 231 239 229 218 216 207 207 210 203 244 269 261 273 268 276 294 290 278 278 289 305 307 306 311 315 316 317 315 315 316
215 211 208 212 220 220 212 209 222 224 223 233 237 236 245 234 229 224 214 216 216 211 224 260 272 270 264 265 273 283 292 291 283 299 301 303 309 311 312 314 314 314 317
218 218 212 218 225 226 220 218 217 221 222 226 226 228 238 232 241 236 227 226 225 226 219 241 266 263 269 272 286 287 287 291 297 300 300 304 309 309 311 313 313 315 315
213 220 222 223 225 225 223 222 217 220 226 232 229 228 231 227 237 238 236 232 228 229 228 241 260 267 267 271 269 285 299 300 298 305 306 306 307 310 308 310 315 316 317
221 221 224 230 229 224 224 221 220 218 223 236 240 236 236 236 240 242 240 232 224 228 231 242 258 269 269 274 269 261 283 300 290 280 301 300 302 297 300 304 310 309 310
228 223 227 228 231 236 243 238 224 213 216 226 240 246 249 249 254 262 263 256 237 231 234 237 250 255 263 257 256 259 271 297 297 287 301 292 279 277 276 271 295 304 306
226 232 235 230 235 245 251 249 236 212 211 221 231 240 253 253 258 251 268 273 268 262 249 235 240 246 252 244 243 256 248 246 253 262 278 279 271 275 275 285 298 303 307
225 232 236 234 240 252 256 254 247 223 215 226 229 230 236 247 246 249 251 264 266 267 266 249 237 243 241 237 225 234 243 256 258 250 207 266 282 277 289 284 292 310 321
231 234 235 233 240 257 261 259 247 208 224 237 237 232 233 239 255 262 254 258 270 271 271 264 259 262 265 262 247 225 238 261 275 253 200 239 277 296 292 276 280 300 312
230 235 241 238 237 249 261 260 246 207 226 241 243 240 245 250 259 264 249 242 260 268 264 275 273 275 273 270 263 229 215 236 259 266 212 213 252 310 305 287 276 290 303